Flag for Germany Weather past 2 weeks in Dorsten, North Rhine-Westphalia, Germany

Now
62 °F

Scattered clouds.


Feels Like: 62 °F
Forecast: 40 / 58 °F
Wind: 5 mph from North

Location: Essen

Current Time: Apr 21, 2015 at 9:08:04 PM

Latest Report: Apr 21, 2015 at 8:00 PM


Visibility: 28 mi

Pressure: 30.40 "Hg

Humidity: 46%

Dew point: 42 °F

Location of DorstenLocation

Historic Weather in Dorsten — Graph

°F

Dorsten temperature yesterday

Maximum temperature yesterday: 64 °F (at 5:00 PM)
Minimum temperature yesterday: 44 °F (at 7:00 AM)
Average temperature yesterday: 55 °F

Past Weeks' High & Low Weather Summary

 TemperatureHumidityPressure
High72 °F (Apr 15, 3:00 PM)97% (Apr 9, 6:00 AM)30.65 "Hg (Apr 9, 6:00 AM)
Low36 °F (Apr 7, 7:00 AM)27% (Apr 10, 3:00 PM)29.93 "Hg (Apr 15, 7:00 PM)
Average52 °F63%30.27 "Hg
* Reported Apr 6 8:00 PM — Apr 21 8:00 PM, Dorsten, Weather by CustomWeather, © 2015

Note: Actual official high and low records may vary slightly from our data, if they occured in-between our weather recording intervals... More about our weather records

Advertising

Dorsten weather history for previous 24 hours

 ConditionsComfort  
Time TempWeatherWind HumidityBarometerVisibility
8:00 PM
Tue, Apr 21
62 °FScattered clouds.5 mph46%30.40 "Hg28 mi
7:00 PM65 °FPassing clouds.5 mph37%30.40 "Hg25 mi
6:00 PM67 °FPassing clouds.5 mph32%30.40 "Hg22 mi
5:00 PM67 °FPassing clouds.6 mph27%30.41 "Hg19 mi
4:00 PM68 °FPartly sunny.3 mph30%30.41 "Hg16 mi
3:00 PM67 °FPartly sunny.5 mph30%30.42 "Hg19 mi
2:00 PM66 °FSunny.2 mph37%30.42 "Hg15 mi
1:00 PM64 °FSunny.3 mph38%30.45 "Hg13 mi
12:00 PM61 °FSunny.3 mph47%30.45 "Hg12 mi
11:00 AM58 °FOvercast.2 mph54%30.45 "Hg14 mi
10:00 AM56 °FOvercast.2 mph58%30.44 "Hg13 mi
9:00 AM52 °FOvercast.2 mph67%30.44 "Hg12 mi
8:00 AM48 °FOvercast.2 mph75%30.43 "Hg11 mi
7:00 AM43 °FPartly sunny.1 mph86%30.42 "Hg12 mi
6:00 AM44 °FOvercast.2 mph79%30.41 "Hg16 mi
5:00 AM46 °FOvercast.1 mph73%30.41 "Hg25 mi
4:00 AM48 °FPassing clouds.3 mph66%30.40 "Hg28 mi
3:00 AM49 °FClear.5 mph63%30.40 "Hg34 mi
2:00 AM50 °FClear.3 mph59%30.40 "Hg37 mi
1:00 AM52 °FClear.2 mph53%30.39 "Hg43 mi
12:00 AM54 °FPassing clouds.5 mph52%30.38 "Hg43 mi
11:00 PM
Mon, Apr 20
56 °FOvercast.5 mph54%30.38 "Hg31 mi
10:00 PM59 °FPassing clouds.3 mph50%30.37 "Hg19 mi
9:00 PM59 °FPassing clouds.3 mph48%30.36 "Hg22 mi
Weather by CustomWeather, © 2015

See weather overviewHow to use our weather pages